Regional Weather Roundup
Issued by NWS Goodland, KS

Home | Current Version | Previous Version | Text Only | Print | Product List | Glossary Off
Versions: 1 2 3 4 5 6 7 8 9 10 11 12 13 14 15 16 17 18 19 20 21 22 23 24 25 26 27 28 29 30 31 32 33 34 35 36 37 38 39 40 41 42 43 44 45 46 47 48 49 50

000
ASUS43 KGLD 270259
RWRGLD

GOODLAND FORECAST AREA HOURLY WEATHER ROUNDUP
NATIONAL WEATHER SERVICE GOODLAND KS
900 PM MDT SUN APR 26 2015

...OFFICIAL OBSERVATIONS...

CITY           SKY/WX    TMP DP  RH WIND       PRES   REMARKS
GOODLAND KS    LGT RAIN  44  43  96 E10       30.06R
HILL CITY KS   CLOUDY    48  43  82 E3        30.05R
IMPERIAL NEB   CLOUDY    47  42  83 E8        30.08R
MCCOOK NEB     CLOUDY    51  43  74 NE7       30.06R
AKRON CO       LGT RAIN  40  40 100 E10       30.05R
BURLINGTON CO  CLOUDY    44  42  93 E13       30.04R
LIMON CO       CLOUDY    39  38  96 E12       30.04R FOG
$$

...UNOFFICIAL OBSERVATIONS...

CITY           SKY/WX    TMP DP  RH WIND       PRES   REMARKS
COLBY KS       CLOUDY    46  46 100 NE6       30.08R
GOVE KS          N/A     47  32  56 MISG        N/A
LENORA KS        N/A     45  32  60 MISG        N/A
NORTON KS      MOCLDY    48  39  71 E5        30.04R
SHARON SPRINGS   N/A     45  44  97 N8          N/A
TRIBUNE KS     CLOUDY    46  46 100 NE13      30.02F
KIT CARSON CO    N/A     43  41  92 MISG        N/A
$$



USA.gov is the U.S. government's official web portal to all federal, state and local government web resources and services.